CW8192 Weather Reports


Display with metric or nautical units.
time (UTC)temp
F
wind
direction
speed
MPH
gust
MPH
rain 1hr
in
rain 24hr
in
rain mn
in
humidity
%
barometer
mb
20260503023704 41 281 2.0 3.0 0.00 0.24 0.15 74 1012.5
20260503023204 41 277 2.0 6.0 0.00 0.24 0.15 72 1012.4
20260503022204 41 287 3.0 3.0 0.00 0.24 0.15 72 1012.4
20260503021704 41 299 3.0 6.0 0.00 0.24 0.15 72 1012.5
20260503020704 42 283 3.0 9.0 0.00 0.24 0.15 72 1012.5
20260503020205 42 298 5.0 9.0 0.00 0.24 0.15 72 1012.5
20260503015704 42 287 5.0 8.0 0.00 0.24 0.15 73 1012.5
20260503015204 42 296 5.0 12.0 0.00 0.24 0.15 72 1012.6
20260503014205 42 284 5.0 10.0 0.00 0.24 0.15 71 1012.6
20260503013704 42 301 4.0 9.0 0.00 0.24 0.15 71 1012.6
20260503013204 43 295 5.0 9.0 0.00 0.24 0.15 70 1012.7
20260503012704 43 291 3.0 9.0 0.00 0.24 0.15 69 1012.5
20260503012204 43 296 2.0 8.0 0.00 0.24 0.15 68 1012.5
20260503011204 43 300 1.0 5.0 0.00 0.24 0.15 69 1012.6
20260503010704 43 300 5.0 9.0 0.00 0.24 0.15 67 1012.6
20260503010204 44 296 3.0 7.0 0.00 0.24 0.15 69 1012.6
20260503005705 44 307 3.0 8.0 0.00 0.24 0.15 69 1012.5
20260503005204 44 315 1.0 3.0 0.00 0.24 0.15 67 1012.4
20260503004704 45 294 3.0 12.0 0.00 0.24 0.15 69 1012.5
20260503004203 45 289 6.0 10.0 0.00 0.24 0.15 67 1012.2
20260503003704 45 295 6.0 10.0 0.00 0.24 0.15 67 1012.3
20260503003204 45 294 5.0 9.0 0.00 0.24 0.15 66 1012.2
20260503002704 45 299 4.0 9.0 0.00 0.24 0.15 66 1012.1
20260503001705 46 289 6.0 12.0 0.00 0.24 0.15 66 1012.0
20260503001204 46 291 3.0 8.0 0.00 0.24 0.15 64 1011.9
20260503000703 46 303 3.0 8.0 0.00 0.24 0.15 67 1011.8
20260503000204 46 300 5.0 9.0 0.00 0.24 0.15 65 1011.8
20260502235204 47 324 3.0 7.0 0.00 0.24 0.15 64 1011.8
20260502234704 47 314 2.0 8.0 0.00 0.24 0.15 66 1011.8
20260502233704 47 292 4.0 12.0 0.00 0.24 0.15 64 1011.8
20260502233204 47 305 3.0 9.0 0.00 0.24 0.15 65 1011.7
20260502232704 47 291 5.0 12.0 0.00 0.24 0.15 65 1011.7
20260502232204 47 305 5.0 13.0 0.00 0.24 0.15 65 1011.7
20260502231704 47 296 5.0 12.0 0.00 0.24 0.15 64 1011.6
20260502231204 47 294 3.0 8.0 0.00 0.24 0.15 64 1011.6
20260502230705 48 286 5.0 13.0 0.00 0.24 0.15 63 1011.5
20260502230205 48 300 4.0 12.0 0.00 0.24 0.15 62 1011.4
20260502225205 48 304 6.0 13.0 0.00 0.24 0.15 61 1011.5
20260502224705 49 302 6.0 10.0 0.00 0.24 0.15 61 1011.3
20260502224205 49 295 5.0 12.0 0.00 0.24 0.15 62 1011.2
20260502223705 49 286 6.0 12.0 0.00 0.24 0.15 62 1011.2
20260502223205 49 295 7.0 13.0 0.00 0.24 0.15 59 1011.2
20260502222705 49 295 5.0 13.0 0.00 0.24 0.15 60 1011.1
20260502222206 49 296 9.0 12.0 0.00 0.24 0.15 59 1011.1
20260502221705 50 299 7.0 13.0 0.00 0.24 0.15 60 1011.0
20260502221205 50 290 7.0 14.0 0.00 0.24 0.15 59 1011.0
20260502220705 50 304 8.0 13.0 0.00 0.24 0.15 57 1011.0
20260502220205 51 306 6.0 13.0 0.00 0.24 0.15 57 1010.9
20260502215705 51 316 5.0 12.0 0.00 0.24 0.15 57 1010.9
20260502214705 52 300 5.0 14.0 0.00 0.24 0.15 56 1010.8
20260502214205 52 297 6.0 12.0 0.00 0.24 0.15 55 1010.8
20260502213705 52 315 4.0 17.0 0.00 0.24 0.15 55 1010.8
20260502213205 52 298 3.0 9.0 0.00 0.24 0.15 53 1010.8
20260502212705 53 331 3.0 8.0 0.00 0.24 0.15 53 1010.8
20260502212206 53 348 5.0 13.0 0.00 0.24 0.15 54 1010.7
20260502211705 53 290 5.0 13.0 0.00 0.24 0.15 55 1010.7
20260502211205 54 321 5.0 14.0 0.00 0.24 0.15 54 1010.7
20260502210705 54 302 7.0 12.0 0.00 0.24 0.15 56 1010.6
20260502210206 54 291 6.0 12.0 0.00 0.24 0.15 52 1010.6
20260502205705 54 292 8.0 15.0 0.00 0.24 0.15 55 1010.7
20260502205205 54 302 10.0 14.0 0.00 0.24 0.15 55 1010.6
20260502204705 54 315 7.0 12.0 0.00 0.24 0.15 51 1010.6
20260502204205 54 288 5.0 12.0 0.00 0.24 0.15 55 1010.6
20260502203704 54 294 10.0 17.0 0.00 0.24 0.15 54 1010.7
20260502203205 54 307 4.0 9.0 0.00 0.24 0.15 54 1010.7
20260502202705 54 327 4.0 9.0 0.00 0.24 0.15 53 1010.6
20260502202204 55 331 6.0 9.0 0.00 0.24 0.15 54 1010.8
20260502201705 55 343 6.0 12.0 0.00 0.24 0.15 53 1010.8
20260502201205 56 302 8.0 16.0 0.00 0.24 0.15 55 1010.8
20260502200706 56 295 7.0 14.0 0.00 0.24 0.15 54 1010.8
20260502200205 56 292 5.0 10.0 0.00 0.24 0.15 54 1010.8
20260502195705 56 313 7.0 16.0 0.00 0.24 0.15 54 1010.8
20260502195205 56 310 6.0 13.0 0.00 0.24 0.15 56 1010.9
20260502194704 56 298 6.0 13.0 0.00 0.24 0.15 52 1010.9
20260502193705 56 290 10.0 17.0 0.00 0.24 0.15 55 1010.9
20260502193205 57 312 5.0 12.0 0.00 0.24 0.15 54 1011.0
20260502192705 57 304 5.0 15.0 0.00 0.24 0.15 54 1011.0
20260502191205 58 279 13.0 17.0 0.00 0.24 0.15 53 1011.0
20260502190704 57 299 7.0 12.0 0.00 0.24 0.15 58 1011.1
20260502190205 58 295 7.0 17.0 0.00 0.24 0.15 56 1011.0
20260502185705 57 279 10.0 20.0 0.00 0.24 0.15 57 1011.0
20260502185205 58 280 9.0 16.0 0.00 0.24 0.15 52 1010.9
20260502184705 57 286 6.0 12.0 0.00 0.24 0.15 57 1010.9
20260502184205 57 344 4.0 9.0 0.00 0.24 0.15 59 1011.0
20260502183705 56 290 5.0 10.0 0.00 0.24 0.15 62 1011.0
20260502183205 56 310 5.0 12.0 0.00 0.24 0.15 64 1011.0
20260502182705 56 294 5.0 13.0 0.00 0.24 0.15 63 1010.9
20260502182205 55 287 4.0 6.0 0.00 0.24 0.15 61 1011.0
20260502181705 56 297 3.0 6.0 0.00 0.24 0.15 63 1011.0
20260502181205 55 283 4.0 10.0 0.00 0.24 0.15 65 1010.9
20260502180705 54 283 6.0 12.0 0.00 0.24 0.15 65 1010.9
20260502180205 54 297 6.0 12.0 0.00 0.24 0.15 63 1011.0
20260502170205 55 279 5.0 9.0 0.00 0.24 0.15 68 1011.2
20260502164205 53 296 7.0 12.0 0.00 0.24 0.15 70 1011.6
20260502163705 53 295 3.0 14.0 0.00 0.24 0.15 70 1011.6
20260502163205 52 356 3.0 10.0 0.00 0.24 0.15 75 1011.7
20260502162205 53 304 3.0 7.0 0.00 0.24 0.15 71 1011.9
20260502161705 53 289 5.0 10.0 0.00 0.24 0.15 74 1011.9
20260502161205 53 305 6.0 12.0 0.00 0.24 0.15 78 1011.9
20260502160705 53 285 6.0 12.0 0.00 0.24 0.15 75 1011.8
20260502152204 49 295 6.0 12.0 0.00 0.24 0.15 78 1012.1
20260502151705 50 336 6.0 12.0 0.00 0.24 0.15 80 1012.0
20260502151205 50 303 5.0 8.0 0.00 0.24 0.15 82 1012.0
20260502150704 50 304 8.0 16.0 0.00 0.24 0.15 82 1012.1
20260502130704 45 302 2.0 7.0 0.01 0.24 0.15 94 1012.3
20260502130205 45 299 3.0 6.0 0.01 0.24 0.15 94 1012.3
20260502123205 43 300 4.0 7.0 0.01 0.24 0.15 92 1012.1
20260502122705 43 275 3.0 6.0 0.00 0.23 0.14 92 1012.2
20260502122205 43 292 2.0 6.0 0.00 0.23 0.14 91 1012.2
20260502121704 43 277 4.0 7.0 0.00 0.23 0.14 91 1012.2
20260502121204 43 286 3.0 7.0 0.00 0.23 0.14 91 1012.2
20260502120706 43 286 2.0 3.0 0.00 0.23 0.14 91 1012.2
20260502120204 43 284 3.0 5.0 0.00 0.23 0.14 91 1012.1
20260502115705 43 276 3.0 6.0 0.00 0.23 0.14 91 1012.0
20260502115205 43 291 3.0 6.0 0.00 0.23 0.14 91 1012.0
20260502114704 43 284 3.0 6.0 0.00 0.23 0.14 91 1012.1
20260502114204 43 284 2.0 6.0 0.00 0.23 0.14 91 1012.1
20260502113705 43 285 5.0 8.0 0.00 0.23 0.14 91 1012.0
20260502112205 43 300 5.0 8.0 0.00 0.23 0.14 91 1011.8
20260502111704 43 296 2.0 3.0 0.00 0.23 0.14 91 1011.8
20260502111204 43 274 3.0 6.0 0.03 0.23 0.14 91 1011.8
20260502110705 43 301 4.0 8.0 0.05 0.23 0.14 90 1011.6
20260502110204 43 302 3.0 7.0 0.05 0.23 0.14 91 1011.7
20260502105205 43 303 2.0 3.0 0.05 0.23 0.14 90 1011.5
20260502104705 43 297 2.0 6.0 0.05 0.23 0.14 90 1011.4
20260502104204 43 299 2.0 3.0 0.05 0.23 0.14 90 1011.3
20260502103705 43 305 3.0 3.0 0.05 0.23 0.14 90 1011.3
20260502102705 44 294 2.0 6.0 0.05 0.23 0.14 90 1011.1
20260502101704 44 303 2.0 5.0 0.05 0.23 0.14 90 1011.1
20260502101205 45 315 3.0 5.0 0.02 0.20 0.11 90 1011.0
20260502100705 45 303 2.0 3.0 0.00 0.18 0.09 90 1011.0
20260502100204 45 213 0.0 2.0 0.00 0.18 0.09 90 1010.9
20260502091204 45 178 0.0 1.0 0.00 0.18 0.09 90 1010.5
20260502090704 45 178 0.0 2.0 0.00 0.18 0.09 90 1010.4
20260502090204 45 177 2.0 3.0 0.00 0.18 0.09 90 1010.5
20260502071204 46 112 2.0 3.0 0.02 0.18 0.09 90 1011.0
20260502070706 46 126 1.0 3.0 0.02 0.18 0.09 90 1011.0
20260502070205 46 123 2.0 3.0 0.02 0.17 0.08 90 1011.0
20260502065705 46 126 2.0 3.0 0.02 0.17 0.08 90 1011.0
20260502065205 46 125 2.0 3.0 0.02 0.17 0.08 91 1010.9
20260502064704 46 125 2.0 3.0 0.02 0.17 0.08 91 1010.9
20260502064204 46 110 2.0 3.0 0.02 0.17 0.08 91 1011.0
20260502063704 46 36 0.0 0.0 0.02 0.17 0.08 91 1011.0
20260502063204 46 36 0.0 0.0 0.02 0.17 0.08 91 1011.0
20260502062705 46 36 0.0 0.0 0.01 0.16 0.07 91 1010.9
20260502062204 46 36 0.0 0.0 0.01 0.16 0.07 91 1010.9
20260502061204 46 36 0.0 0.0 0.01 0.16 0.07 91 1011.1
20260502060204 46 292 0.0 1.0 0.00 0.15 0.06 91 1011.1
20260502055204 46 292 0.0 0.0 0.00 0.15 0.06 91 1011.2
20260502054704 46 344 0.0 0.0 0.00 0.15 0.06 91 1011.1
20260502054204 46 96 0.0 0.0 0.00 0.15 0.06 91 1011.0
20260502053204 46 81 0.0 2.0 0.00 0.15 0.06 91 1011.0
20260502052704 46 98 1.0 3.0 0.00 0.15 0.06 91 1011.2
20260502052204 46 108 2.0 3.0 0.01 0.15 0.06 91 1011.3
20260502051704 46 104 1.0 2.0 0.01 0.15 0.06 92 1011.4
20260502051204 46 117 0.0 0.0 0.02 0.15 0.06 92 1011.6
20260502050706 46 117 0.0 0.0 0.03 0.15 0.06 92 1011.7
20260502050204 46 117 0.0 1.0 0.05 0.15 0.06 92 1011.7
20260502045704 46 117 0.0 0.0 0.07 0.15 0.06 92 1011.6
20260502045204 46 115 1.0 2.0 0.07 0.15 0.06 92 1011.5
20260502044705 46 115 1.0 3.0 0.08 0.15 0.06 93 1011.5
20260502044205 46 133 2.0 3.0 0.08 0.15 0.06 93 1011.5
20260502043704 46 102 1.0 6.0 0.08 0.15 0.06 93 1011.5
20260502043204 46 121 2.0 5.0 0.00 0.15 0.06 94 1011.5
20260502042704 46 88 0.0 1.0 0.00 0.15 0.06 94 1011.6
20260502042204 46 70 1.0 2.0 0.00 0.14 0.05 94 1011.7
20260502041704 46 306 0.0 2.0 0.00 0.14 0.05 94 1011.7
20260502041204 46 298 1.0 3.0 0.08 0.13 0.04 94 1011.8
20260502040205 46 310 2.0 3.0 0.07 0.10 0.01 94 1011.8
20260502035705 46 294 2.0 2.0 0.06 0.09 0.09 94 1011.8
20260502035204 46 277 1.0 1.0 0.06 0.08 0.08 94 1011.9
20260502034705 46 277 0.0 1.0 0.06 0.07 0.07 94 1011.8
20260502034205 46 277 0.0 1.0 0.06 0.07 0.07 94 1011.7
20260502033705 46 249 0.0 2.0 0.07 0.07 0.07 94 1011.7
20260502033204 46 230 1.0 2.0 0.06 0.06 0.06 95 1011.7
20260502032705 46 230 2.0 3.0 0.06 0.06 0.06 94 1011.7
20260502032204 47 234 1.0 3.0 0.05 0.05 0.05 94 1011.5
20260502031704 47 234 1.0 2.0 0.05 0.05 0.05 94 1011.6
20260502031204 47 234 0.0 1.0 0.05 0.05 0.05 93 1011.5
20260502030204 47 234 1.0 2.0 0.03 0.03 0.03 91 1011.6
20260502025704 48 248 2.0 3.0 0.03 0.03 0.03 91 1011.5
20260502025205 48 277 2.0 3.0 0.02 0.02 0.02 89 1011.6
20260502024704 49 285 3.0 7.0 0.01 0.01 0.01 90 1011.5
20260502024204 49 286 4.0 9.0 0.01 0.01 0.01 87 1011.5